This demonstration page uses our WeatherBlox Daily Observations layout. Learn more.

38.89511, -77.03637

Hourly Observations for January 1, 2015

Temp ( °F °C ) Dew Point ( °F °C ) Humidity (%) Winds ( mph kmh ) Pressure ( in mb ) Visibility ( mi km ) Precip ( " mm )
12:41 am 00:41 Mostly Clear 28 -2 18 -8 64 64 SW 5 7 30.27 1025 10 16.09344 0 0
12:52 am 00:52 Clear 30 -1 18 -8 59 59 SSW 5 7 30.27 1025 10 16.09344 0 0
1:52 am 01:52 Clear 27 -3 16 -9 64 64 SSW 7 11 30.24 1024 10 16.09344 0 0
2:52 am 02:52 Clear 28 -2 12 -11 51 51 SSW 5 7 30.24 1024 10 16.09344 0 0
3:52 am 03:52 Clear 28 -2 12 -11 51 51 SSW 5 7 30.24 1024 10 16.09344 0 0
4:52 am 04:52 Clear 28 -2 12 -11 51 51 SSW 3 6 30.21 1023 10 16.09344 0 0
5:52 am 05:52 Clear 28 -2 12 -11 51 51 SSW 3 6 30.24 1024 10 16.09344 0 0
6:52 am 06:52 Mostly Clear 28 -2 12 -11 51 51 SW 5 7 30.21 1023 10 16.09344 0 0
7:52 am 07:52 Partly Cloudy 28 -2 14 -10 55 55 SW 5 7 30.24 1024 10 16.09344 0 0
8:52 am 08:52 Partly Cloudy 34 1 18 -8 51 51 SSW 9 15 30.27 1025 10 16.09344 0 0
9:52 am 09:52 Partly Cloudy 36 2 16 -9 44 44 SSW 8 13 30.27 1025 10 16.09344 0 0
10:52 am 10:52 Partly Cloudy 39 4 16 -9 39 39 S 8 13 30.24 1024 10 16.09344 0 0
11:52 am 11:52 Mostly Cloudy 43 6 16 -9 34 34 SSW 13 20 30.18 1022 10 16.09344 0 0
12:52 pm 12:52 Mostly Cloudy 45 7 14 -10 29 29 SW 14 22 30.12 1020 10 16.09344 0 0
1:52 pm 13:52 Mostly Cloudy 46 8 14 -10 27 27 WSW 15 24 30.12 1020 10 16.09344 0 0
2:52 pm 14:52 Mostly Cloudy 45 7 16 -9 31 31 SW 13 20 30.09 1019 10 16.09344 0 0
3:52 pm 15:52 Mostly Cloudy 45 7 16 -9 31 31 SSW 12 19 30.09 1019 10 16.09344 0 0
4:52 pm 16:52 Mostly Cloudy 43 6 16 -9 34 34 SSW 10 17 30.09 1019 10 16.09344 0 0
5:52 pm 17:52 Partly Cloudy 43 6 18 -8 36 36 S 10 17 30.09 1019 10 16.09344 0 0
6:52 pm 18:52 Clear 34 1 10 -12 38 38 SSW 5 7 30.33 1027 10 16.09344 0 0
7:52 pm 19:52 Mostly Clear 39 4 19 -7 45 45 SSW 10 17 30.09 1019 10 16.09344 0 0
8:52 pm 20:52 Partly Cloudy 37 3 21 -6 52 52 SSW 9 15 30.09 1019 10 16.09344 0 0
9:52 pm 21:52 Mostly Cloudy 39 4 21 -6 48 48 SSW 9 15 30.09 1019 10 16.09344 0 0
10:52 pm 22:52 Clear 39 4 21 -6 48 48 SW 6 9 30.09 1019 10 16.09344 0 0
11:52 pm 23:52 Partly Cloudy 41 5 23 -5 49 49 SSW 5 7 30.09 1019 10 16.09344 0 0

Powered by AerisWeather